Regional Weather Roundup
Issued by NWS Newport/Morehead, NC

Current Version | Previous Version | Text Only | Print | Product List | Glossary On
Versions: 1 2 3 4 5 6 7 8 9 10 11 12 13 14 15 16 17 18 19 20 21 22 23 24 25 26 27 28 29 30 31 32 33 34 35 36 37 38 39 40 41 42 43 44 45 46 47 48 49 50
000
ASUS42 KMHX 171822
RWRMHX
WEATHER ROUNDUP FOR EASTERN NORTH CAROLINA
NATIONAL WEATHER SERVICE NEWPORT/MOREHEAD CITY NC
100 PM EST WED DEC 17 2014

NOTE: "FAIR" INDICATES FEW OR NO CLOUDS BELOW 12,000 FEET
WITH NO SIGNIFICANT WEATHER AND/OR OBSTRUCTIONS TO VISIBILITY

NCZ015>017-031-032-045>047-102-103-171900-
NORTH COAST

CITY           SKY/WX    TMP DP  RH WIND       PRES   REMARKS
EDENTON        SUNNY     59  42  53 NW9       30.01F
ELIZABETH CITY SUNNY     61  43  51 W10       30.01F
KITTY HAWK     HAZE      53  44  71 W5        30.00F VSB 3/4
MANTEO         SUNNY     54  42  65 W6        30.01F

$$

NCZ045>047-081-094-103-104-171900-
CENTRAL COAST

CITY           SKY/WX    TMP DP  RH WIND       PRES   REMARKS
FRISCO         SUNNY     53  44  71 NW7       30.02F
SWANQUARTER      N/A     57 N/A N/A W9        29.97F

$$

NCZ095-097-098-100-101-171900-
SOUTHERN COAST

CITY           SKY/WX    TMP DP  RH WIND       PRES   REMARKS
BEAUFORT       SUNNY     60  42  51 NW7       30.04F
CEDAR ISLAND     N/A     54 N/A N/A NW3       30.06S
JACKSONVILLE   SUNNY     60  40  47 NW8       30.05F
PINEY ISLAND   NOT AVBL
WILMINGTON     SUNNY     61  40  45 VRB6      30.06F


$$

NCZ011>013-027>030-043-044-078>080-089-090>093-098-171900-
COASTAL PLAIN

CITY           SKY/WX    TMP DP  RH WIND       PRES   REMARKS
AHOSKIE        SUNNY     57  40  53 NW3       30.02F
CLINTON        SUNNY     59  42  54 W3        30.07F
ELIZABETHTOWN  SUNNY     59  40  49 W6        30.08F
GOLDSBORO      SUNNY     59  45  58 NW9       30.03F
GREENVILLE     SUNNY     59  39  47 N8        30.05F
HAVELOCK       NOT AVBL
KENANSVILLE    SUNNY     59  38  45 W8        30.06F
KINSTON        SUNNY     59  41  51 NW9       30.05F
NEW BERN       SUNNY     61  41  47 NW7       30.05F
RICHLANDS      SUNNY     61  37  41 W8        30.05F
ROCKY MOUNT    SUNNY     59  38  45 W12       30.05F
WASHINGTON     SUNNY     58  40  50 NW7       30.03F
WHITEVILLE     SUNNY     59  40  48 W5        30.07F

$$

AMZ130-135-150-152-154-156-158-170-250-252-270-ANZ085-086-088-633-658-670-171900-
MARINE OBSERVATIONS

STATION/POSITION TIME  TEMP    WIND        PRES    WAVE   SWELL
                       AIR SEA DIR/SP/G            HT/PER HT/PER
                 (UTC) (F)     (DEG/KT/KT) (MB)    (FT/S) (FT/S)
CHESAPEAKE LIGHT 1800   53     250/  5/  6 1016.2
64 E VA BEACH    1800   50 54  280/ 10/ 12 1015.1    4/ 7   3/ 7
DUCK             1800   52 49  230/  8/  9 1015.1
2 E DUCK         1800      49                N/A     2/10
10 NE DUCK       1800      52                N/A     2/10
OREGON INLET     1800   54 51  300/  7/  9 1016.2
13E OREGON INLT  1800      53                N/A     3/ 8
HATTERAS CG      1800   51 53  310/  6/  7 1017.0
DIAMOND BUOY     1800   53                 1017.0    3/ 7
17 S OCRACOKE    NOT AVBL
CAPE LOOKOUT     1800   58     290/  4/  5 1017.3
BEAUFORT LAB     1800   58 53  340/  6/  9 1016.1
30 SE NEW RIVER  1800   55 61  310/  8/ 10 1018.4    3/ 7   3/ 7
5 SE WRIGHTSVLE  1800   58 55  220/  4/  4 1018.1
225 S CAPE HAT   1653   68 73  320/ 10/ 16 1017.6    7/ 8   7/ 8
41 SE CHARLESTON 1800   59 73   20/  4/  8 1019.4    3/ 4   2/ 4

$$


USA.gov is the U.S. government's official web portal to all federal, state and local government web resources and services.